| time (UTC) | temp C | wind direction | speed KPH | gust KPH | rain 1hr cm | rain 24hr cm | rain mn cm | humidity % | barometer mb |
| 20260505183034 | 27 | 184 | 8.0 | 22.5 | 0.00 | 0.08 | 0.08 | 40 | 1007.9 |
| 20260505181537 | 27 | 252 | 6.4 | 19.3 | 0.00 | 0.08 | 0.08 | 42 | 1008.0 |
| 20260505180045 | 26 | 263 | 8.0 | 25.7 | 0.00 | 0.08 | 0.08 | 42 | 1008.4 |
| 20260505174534 | 27 | 266 | 6.4 | 22.5 | 0.00 | 0.08 | 0.08 | 44 | 1008.5 |
| 20260505173034 | 27 | 207 | 6.4 | 16.1 | 0.00 | 0.08 | 0.08 | 45 | 1008.6 |
| 20260505171538 | 26 | 238 | 6.4 | 19.3 | 0.00 | 0.08 | 0.08 | 45 | 1008.7 |
| 20260505170033 | 26 | 258 | 4.8 | 12.9 | 0.00 | 0.08 | 0.08 | 46 | 1008.9 |
| 20260505164534 | 25 | 264 | 8.0 | 22.5 | 0.00 | 0.08 | 0.08 | 46 | 1009.2 |
| 20260505163035 | 25 | 290 | 8.0 | 19.3 | 0.00 | 0.08 | 0.08 | 45 | 1009.3 |
| 20260505161532 | 25 | 240 | 6.4 | 16.1 | 0.00 | 0.08 | 0.08 | 49 | 1009.4 |
| 20260505153036 | 23 | 282 | 6.4 | 11.3 | 0.00 | 0.08 | 0.08 | 53 | 1009.6 |
| 20260505151536 | 23 | 285 | 8.0 | 16.1 | 0.00 | 0.08 | 0.08 | 51 | 1009.7 |
| 20260505124542 | 17 | 0 | 0.0 | 1.6 | 0.00 | 0.08 | 0.08 | 71 | 1011.1 |
| 20260505123049 | 17 | 247 | 0.0 | 1.6 | 0.00 | 0.08 | 0.08 | 69 | 1011.0 |
| 20260505121604 | 16 | 124 | 0.0 | 0.0 | 0.00 | 0.08 | 0.08 | 73 | 1010.8 |
| 20260505120031 | 15 | 125 | 0.0 | 3.2 | 0.00 | 0.08 | 0.08 | 78 | 1010.6 |
| 20260505114535 | 14 | 0 | 0.0 | 1.6 | 0.00 | 0.08 | 0.08 | 84 | 1010.6 |
| 20260505113032 | 12 | 0 | 0.0 | 0.0 | 0.00 | 0.08 | 0.08 | 88 | 1010.4 |
| 20260505111539 | 11 | 0 | 0.0 | 1.6 | 0.00 | 0.08 | 0.08 | 92 | 1010.5 |
| 20260505101540 | 8 | 0 | 0.0 | 1.6 | 0.00 | 0.08 | 0.08 | 92 | 1009.7 |
| 20260505100043 | 9 | 0 | 0.0 | 1.6 | 0.00 | 0.08 | 0.08 | 92 | 1009.7 |
| 20260505094536 | 9 | 0 | 0.0 | 1.6 | 0.00 | 0.08 | 0.08 | 91 | 1009.8 |
| 20260505093040 | 9 | 288 | 0.0 | 0.0 | 0.00 | 0.08 | 0.08 | 90 | 1009.8 |
| 20260505091541 | 10 | 0 | 0.0 | 1.6 | 0.00 | 0.08 | 0.08 | 89 | 1009.6 |
| 20260505090041 | 10 | 288 | 0.0 | 1.6 | 0.00 | 0.08 | 0.08 | 89 | 1009.5 |
| 20260505084535 | 10 | 0 | 0.0 | 0.0 | 0.00 | 0.08 | 0.08 | 89 | 1009.5 |
| 20260505083044 | 10 | 103 | 0.0 | 1.6 | 0.00 | 0.08 | 0.08 | 89 | 1009.4 |
| 20260505081534 | 11 | 0 | 0.0 | 0.0 | 0.00 | 0.08 | 0.08 | 88 | 1009.5 |
| 20260505080045 | 11 | 0 | 0.0 | 0.0 | 0.00 | 0.08 | 0.08 | 87 | 1009.4 |
| 20260505074538 | 11 | 98 | 0.0 | 1.6 | 0.00 | 0.08 | 0.08 | 87 | 1009.4 |
| 20260505073043 | 11 | 0 | 0.0 | 0.0 | 0.00 | 0.08 | 0.08 | 87 | 1009.3 |
| 20260505071540 | 11 | 0 | 0.0 | 1.6 | 0.00 | 0.08 | 0.08 | 87 | 1009.3 |
| 20260505070037 | 11 | 89 | 0.0 | 1.6 | 0.00 | 0.08 | 0.08 | 87 | 1009.3 |
| 20260505064536 | 12 | 88 | 0.0 | 1.6 | 0.08 | 0.08 | 0.08 | 86 | 1009.4 |
| 20260505063045 | 12 | 0 | 0.0 | 0.0 | 0.08 | 0.08 | 0.08 | 86 | 1009.6 |
| 20260505061539 | 11 | 0 | 0.0 | 0.0 | 0.08 | 0.08 | 0.08 | 85 | 1009.5 |
| 20260505060035 | 12 | 0 | 0.0 | 0.0 | 0.05 | 0.05 | 0.05 | 81 | 1009.5 |
| 20260505054543 | 12 | 0 | 0.0 | 0.0 | 0.00 | 0.00 | 0.00 | 79 | 1009.6 |
| 20260505053043 | 12 | 0 | 0.0 | 3.2 | 0.00 | 0.00 | 0.00 | 78 | 1009.6 |
| 20260505051541 | 11 | 111 | 0.0 | 1.6 | 0.00 | 0.00 | 0.00 | 78 | 1009.5 |
| 20260505041545 | 11 | 0 | 0.0 | 0.0 | 0.00 | 0.00 | 0.00 | 77 | 1009.4 |
| 20260505040042 | 12 | 98 | 1.6 | 3.2 | 0.00 | 0.00 | 0.00 | 76 | 1009.3 |
| 20260505034537 | 12 | 0 | 0.0 | 0.0 | 0.00 | 0.00 | 0.00 | 74 | 1009.3 |
| 20260505033034 | 12 | 0 | 0.0 | 0.0 | 0.00 | 0.00 | 0.00 | 73 | 1009.2 |
| 20260505031537 | 12 | 0 | 0.0 | 0.0 | 0.00 | 0.00 | 0.00 | 72 | 1009.2 |
| 20260505030047 | 12 | 0 | 0.0 | 0.0 | 0.00 | 0.00 | 0.00 | 72 | 1009.2 |
| 20260505024531 | 13 | 96 | 0.0 | 1.6 | 0.00 | 0.00 | 0.00 | 71 | 1009.1 |
| 20260505023035 | 13 | 99 | 0.0 | 1.6 | 0.00 | 0.00 | 0.00 | 69 | 1009.1 |
| 20260505021533 | 14 | 99 | 0.0 | 1.6 | 0.00 | 0.00 | 0.00 | 66 | 1009.2 |
| 20260505020049 | 16 | 0 | 0.0 | 3.2 | 0.00 | 0.00 | 0.00 | 60 | 1009.2 |
| 20260505014532 | 17 | 0 | 0.0 | 1.6 | 0.00 | 0.00 | 0.00 | 55 | 1009.2 |
| 20260505013032 | 17 | 0 | 0.0 | 3.2 | 0.00 | 0.00 | 0.00 | 53 | 1009.3 |
| 20260505011534 | 17 | 198 | 0.0 | 4.8 | 0.00 | 0.00 | 0.00 | 53 | 1009.1 |
| 20260505010057 | 18 | 0 | 0.0 | 3.2 | 0.00 | 0.00 | 0.00 | 52 | 1008.9 |
| 20260505004535 | 18 | 0 | 0.0 | 4.8 | 0.00 | 0.00 | 0.00 | 51 | 1008.6 |
| 20260505003045 | 19 | 0 | 0.0 | 6.4 | 0.00 | 0.00 | 0.00 | 50 | 1008.6 |
| 20260505001535 | 20 | 0 | 0.0 | 9.7 | 0.00 | 0.00 | 0.00 | 49 | 1008.4 |
| 20260505000037 | 20 | 149 | 0.0 | 4.8 | 0.00 | 0.00 | 0.00 | 47 | 1008.1 |
| 20260504234533 | 21 | 241 | 1.6 | 9.7 | 0.00 | 0.00 | 0.00 | 45 | 1008.0 |
| 20260504233041 | 21 | 152 | 1.6 | 8.0 | 0.00 | 0.00 | 0.00 | 45 | 1007.8 |
| 20260504231536 | 21 | 242 | 3.2 | 14.5 | 0.00 | 0.00 | 0.00 | 43 | 1007.8 |
| 20260504230039 | 22 | 292 | 1.6 | 9.7 | 0.00 | 0.00 | 0.00 | 43 | 1007.9 |
| 20260504224535 | 22 | 207 | 3.2 | 9.7 | 0.00 | 0.00 | 0.00 | 42 | 1007.9 |
| 20260504223033 | 22 | 155 | 3.2 | 17.7 | 0.00 | 0.00 | 0.00 | 41 | 1007.9 |
| 20260504221530 | 22 | 226 | 3.2 | 11.3 | 0.00 | 0.00 | 0.00 | 41 | 1007.9 |
| 20260504220035 | 22 | 221 | 4.8 | 17.7 | 0.00 | 0.00 | 0.00 | 40 | 1008.1 |
| 20260504214542 | 22 | 236 | 3.2 | 9.7 | 0.00 | 0.00 | 0.00 | 42 | 1008.1 |
| 20260504213034 | 22 | 234 | 6.4 | 16.1 | 0.00 | 0.00 | 0.00 | 42 | 1008.1 |
| 20260504211532 | 23 | 263 | 3.2 | 9.7 | 0.00 | 0.00 | 0.00 | 40 | 1008.1 |
| 20260504210040 | 22 | 228 | 4.8 | 16.1 | 0.00 | 0.00 | 0.00 | 41 | 1008.2 |
| 20260504204543 | 23 | 297 | 4.8 | 9.7 | 0.00 | 0.00 | 0.00 | 40 | 1008.3 |
| 20260504203037 | 22 | 240 | 6.4 | 16.1 | 0.00 | 0.00 | 0.00 | 40 | 1008.3 |
| 20260504201533 | 22 | 232 | 4.8 | 11.3 | 0.00 | 0.00 | 0.00 | 40 | 1008.6 |
| 20260504200043 | 23 | 278 | 3.2 | 14.5 | 0.00 | 0.00 | 0.00 | 41 | 1008.7 |
| 20260504194535 | 22 | 250 | 6.4 | 12.9 | 0.00 | 0.00 | 0.00 | 40 | 1008.8 |
| 20260504193032 | 22 | 264 | 6.4 | 16.1 | 0.00 | 0.00 | 0.00 | 41 | 1009.2 |
| 20260504191533 | 22 | 282 | 4.8 | 20.9 | 0.00 | 0.00 | 0.00 | 43 | 1009.3 |
| 20260504190030 | 22 | 255 | 4.8 | 14.5 | 0.00 | 0.00 | 0.00 | 42 | 1009.5 |
| 20260504184538 | 22 | 214 | 4.8 | 9.7 | 0.00 | 0.00 | 0.00 | 43 | 1009.7 |